This is the latest recevied weather packets stored in our database for station/object N5SRF. If no packets are shown the sender has not sent any weather packets the latest 10 day(s).
| Time | Temp. | Humidity | Pressure | Rain* | Wind** | Luminosity | Snow |
|---|---|---|---|---|---|---|---|
| 1777983466 | 21.67° C | 96% | 1012.8 hPa | 0 mm | - | 41 W/m² | - |
| 1777983162 | 21.11° C | 97% | 1012.7 hPa | 0 mm | - | 44 W/m² | - |
| 1777982859 | 21.11° C | 97% | 1012.7 hPa | 0 mm | - | 28 W/m² | - |
| 1777982555 | 21.11° C | 97% | 1012.7 hPa | 0 mm | - | 12 W/m² | - |
| 1777982254 | 21.11° C | 97% | 1012.5 hPa | 0 mm | - | 9 W/m² | - |
| 1777981952 | 21.11° C | 97% | 1012.7 hPa | 0 mm | - | 5 W/m² | - |
| 1777981649 | 21.11° C | 97% | 1012.5 hPa | 0 mm | - | 5 W/m² | - |
| 1777981344 | 21.11° C | 97% | 1012.7 hPa | 0 mm | - | 4 W/m² | - |
| 1777981041 | 21.11° C | 97% | 1012.5 hPa | 0 mm | - | 1 W/m² | - |
| 1777980737 | 21.11° C | 97% | 1012.5 hPa | 0 mm | - | 0 W/m² | - |
| 1777980433 | 20.56° C | 97% | 1012.4 hPa | 0 mm | - | 0 W/m² | - |
| 1777980131 | 20.56° C | 97% | 1012.2 hPa | 0 mm | - | 0 W/m² | - |
| 1777979826 | 20.56° C | 97% | 1012.1 hPa | 0 mm | - | 0 W/m² | - |
| 1777979522 | 20.56° C | 97% | 1012.4 hPa | 0 mm | - | 0 W/m² | - |
| 1777979218 | 20.56° C | 97% | 1012.2 hPa | 0 mm | - | 0 W/m² | - |
| 1777978916 | 20.56° C | 97% | 1012.4 hPa | 0 mm | - | 0 W/m² | - |
| 1777978612 | 20.56° C | 97% | 1012.3 hPa | 0 mm | - | 0 W/m² | - |
| 1777978308 | 20.56° C | 97% | 1012.5 hPa | 0 mm | - | 0 W/m² | - |
| 1777978005 | 20.56° C | 97% | 1012.4 hPa | 0 mm | - | 0 W/m² | - |
| 1777977703 | 20.56° C | 97% | 1012.2 hPa | 0 mm | - | 0 W/m² | - |
| 1777977399 | 20.56° C | 97% | 1012.4 hPa | 0 mm | - | 0 W/m² | - |
| 1777977096 | 20.56° C | 97% | 1012.3 hPa | 0 mm | - | 0 W/m² | - |
| 1777976794 | 20° C | 97% | 1012.4 hPa | 0 mm | - | 0 W/m² | - |
| 1777976491 | 20° C | 97% | 1012.4 hPa | 0 mm | - | 0 W/m² | - |
| 1777976190 | 20° C | 97% | 1012.5 hPa | 0 mm | - | 0 W/m² | - |
* Rain latest hour (hover to see other rain measurements)
** Current wind speed in m/s (hover to see current wind gust speed)